Meteo Giornale » Osservazioni meteo Gran Bretagna » Spadeadam

ore: 08:50 - Osservazioni Meteo Spadeadam
Lat. 55° 3' N Lon. 2° 33' W Alt. 325 metri s.l.m.

coperto

13 °C

Coperto

Temp. 24 Ore

9 °C

17 °C

Ovest/Sud-Ovest

22.2 Km/h

Dew point 13 °C

Umidità 100 %

Visibilità  10 Km

Il sole sorge alle ore 06:16

Il sole tramonta alle ore 20:03

Data e Ora Cielo e Fenomeni T °C DP °C Um. % Pres. hPa Vis. km Vento km/h
Oggi h: 08:50 coperto Coperto 13 13 100 1014 10 O/SO 22.2
Oggi h: 08:20 coperto Coperto 13 13 100 1014 10 SO 18.5
Oggi h: 07:50 coperto Coperto 12 12 100 1014 10 O/SO 22.2
Oggi h: 07:20 coperto Coperto 12 12 100 1014 10 O/SO 22.2
Oggi h: 06:50 coperto_pioggia Pioggia 12 12 100 1014 8 O/SO 20.3
Oggi h: 06:20 coperto_pioggia Pioggia 11 11 100 1014 1 O/SO 18.5
Oggi h: 05:50 coperto Coperto 11 11 100 1014 0.1 O 16.7
Oggi h: 05:20 coperto_pioggia Pioggia 11 11 100 1014 10 O 16.7
Oggi h: 04:50 coperto_pioggia Pioviggine 11 11 100 1014 10 O/SO 16.7
Oggi h: 04:20 coperto_pioggia Pioggia 11 11 100 1014 10 O/SO 16.7
Oggi h: 03:50 coperto Coperto 11 11 100 1015 10 O/SO 18.5
Oggi h: 03:20 coperto Coperto 10 10 100 1015 10 O 13
Oggi h: 02:50 coperto Coperto 10 10 100 1015 10 O 13
Oggi h: 02:20 molto_nuvoloso Molto Nuvoloso 9 9 100 1015 10 O 7.4
Oggi h: 01:50 molto_nuvoloso Molto Nuvoloso 9 9 100 1015 10 O 9.3
Oggi h: 01:20 molto_nuvoloso Molto Nuvoloso 9 8 93 1015 10 O 11.1
Oggi h: 00:50 poco_nuvoloso Poco Nuvoloso 9 8 93 1015 10 O 14.8
Oggi h: 00:20 poco_nuvoloso Poco Nuvoloso 9 8 93 1015 10 O 14.8
Ieri h: 23:50 poco_nuvoloso Poco Nuvoloso 10 8 87 1015 10 O 13
Ieri h: 23:20 coperto Coperto 10 9 93 1015 10 O 16.7
Ieri h: 22:50 coperto Coperto 11 9 87 1015 10 O 18.5
Ieri h: 22:20 coperto Coperto 11 9 87 1015 10 O 20.3
Ieri h: 21:50 coperto Coperto 11 9 87 1014 10 O 22.2
Ieri h: 21:20 coperto Coperto 12 9 81 1014 10 O 22.2
Ieri h: 20:50 coperto Coperto 12 10 87 1014 10 O 18.5
Ieri h: 20:20 coperto Coperto 12 10 87 1013 10 O/NO 22.2
Ieri h: 19:50 molto_nuvoloso Molto Nuvoloso 12 10 87 1013 10 O 18.5
Ieri h: 19:20 coperto Coperto 12 10 87 1013 10 O 22.2
Ieri h: 18:50 poco_nuvoloso Poco Nuvoloso 13 10 81 1012 10 O/NO 24
Ieri h: 18:20 coperto Coperto 14 10 76 1012 10 O/NO 29.6
Ieri h: 17:50 coperto Coperto 14 11 82 1012 10 O/NO 31.5
Ieri h: 17:20 coperto_pioggia Pioggia 15 12 82 1011 10 O/NO 27.8
Ieri h: 16:50 molto_nuvoloso Molto Nuvoloso 15 12 82 1011 10 O 29.6
Ieri h: 16:20 molto_nuvoloso Molto Nuvoloso 16 12 77 1010 10 O 29.6
Ieri h: 15:50 molto_nuvoloso Molto Nuvoloso 16 11 72 1010 10 O 27.8
Ieri h: 15:20 molto_nuvoloso Molto Nuvoloso 16 12 77 1010 10 O 27.8
Ieri h: 14:50 molto_nuvoloso Molto Nuvoloso 17 13 77 1010 10 O 27.8
Ieri h: 14:20 coperto_pioggia Pioggia 16 13 82 1009 10 O/NO 27.8
Ieri h: 13:50 coperto Coperto 16 13 82 1009 10 O/NO 27.8
Ieri h: 13:20 molto_nuvoloso Molto Nuvoloso 17 13 77 1009 10 O 20.3
Ieri h: 12:50 molto_nuvoloso Molto Nuvoloso 16 14 87 1008 10 O 20.3
Ieri h: 12:20 coperto_pioggia Pioggia 16 15 93 1008 10 O 20.3
Ieri h: 11:50 molto_nuvoloso Molto Nuvoloso 16 14 87 1007 10 O 22.2
Ieri h: 11:20 coperto Coperto 16 14 87 1007 10 O/NO 24
Ieri h: 10:50 coperto Coperto 15 14 93 1007 10 O/NO 18.5
Ieri h: 10:20 molto_nuvoloso Molto Nuvoloso 14 14 100 1007 10 O/NO 16.7
Ieri h: 09:50 coperto Coperto 14 14 100 1006 10 O/NO 20.3